Regional Weather Roundup
Issued by NWS Newport/Morehead, NC

Current Version | Previous Version | Text Only | Print | Product List | Glossary Off
Versions: 1 2 3 4 5 6 7 8 9 10 11 12 13 14 15 16 17 18 19 20 21 22 23 24 25 26 27 28 29 30 31 32 33 34 35 36 37 38 39 40 41 42 43 44 45 46 47 48 49 50
000 ASUS42 KMHX 171925 RWRMHX WEATHER ROUNDUP FOR EASTERN NORTH CAROLINA NATIONAL WEATHER SERVICE NEWPORT/MOREHEAD CITY NC 200 PM EST FRI NOV 17 2017 NOTE: "FAIR" INDICATES FEW OR NO CLOUDS BELOW 12,000 FEET WITH NO SIGNIFICANT WEATHER AND/OR OBSTRUCTIONS TO VISIBILITY NCZ015>017-031-032-045>047-102-103-172000- NORTH COAST CITY SKY/WX TMP DP RH WIND PRES REMARKS EDENTON SUNNY 56 35 46 CALM 30.17S ELIZABETH CITY SUNNY 56 36 47 NW9 30.16F KITTY HAWK CLEAR 52 35 52 CALM 30.14F MANTEO SUNNY 51 37 58 N7 30.16F $$ NCZ045>047-081-094-103-104-172000- CENTRAL COAST CITY SKY/WX TMP DP RH WIND PRES REMARKS FRISCO SUNNY 54 42 64 N9G18 30.15F $$ NCZ095-097-098-100-101-172000- SOUTHERN COAST CITY SKY/WX TMP DP RH WIND PRES REMARKS BEAUFORT SUNNY 57 37 47 N7 30.15F CEDAR ISLAND NOT AVBL JACKSONVILLE SUNNY 59 36 42 N8 30.15F PINEY ISLAND NOT AVBL WILMINGTON SUNNY 60 34 37 N5 30.16F $$ NCZ011>013-027>030-043-044-078>080-089-090>093-098-172000- COASTAL PLAIN CITY SKY/WX TMP DP RH WIND PRES REMARKS AHOSKIE CLOUDY 52 31 44 N6 30.17F CLINTON SUNNY 59 35 40 CALM 30.16F ELIZABETHTOWN NOT AVBL GOLDSBORO SUNNY 57 31 38 N7 30.15F GREENVILLE SUNNY 55 32 41 N6 30.17F HAVELOCK NOT AVBL KENANSVILLE SUNNY 57 32 38 NE3 30.16F KINSTON SUNNY 57 32 38 NE3 30.17F NEW BERN SUNNY 55 37 50 N6 30.17F RICHLANDS SUNNY 57 35 43 CALM 30.16F ROCKY MOUNT CLOUDY 56 31 38 N3 30.17F WASHINGTON SUNNY 56 32 39 N3 30.16F WHITEVILLE SUNNY 57 33 40 CALM 30.16S $$ AMZ130-135-150-152-154-156-158-170-250-252-270-ANZ085-086-088-633-658-670-172000- MARINE OBSERVATIONS STATION/POSITION TIME TEMP WIND PRES WAVE SWELL AIR SEA DIR/SP/G HT/PER HT/PER (UTC) (F) (DEG/KT/KT) (MB) (FT/S) (FT/S) CHESAPEAKE LIGHT NOT AVBL 64 E VA BEACH 1850 51 61 330/ 16/ 19 1020.8 5/ 7 3/11 DUCK 1830 50 57 350/ 12/ 15 1020.6 2 E DUCK 1900 59 N/A 4/ 7 2/13 OREGON INLET 1830 51 58 350/ 10/ 14 1021.1 13E OREGON INLT 1848 62 N/A 6/ 7 7/ 7 HATTERAS CG 1830 51 58 20/ 13/ 16 1020.7 DIAMOND BUOY 1900 53 64 360/ 17/ 21 1020.7 CAPE LOOKOUT 1900 53 10/ 9/ 12 1021.2 BEAUFORT LAB 1830 53 59 360/ 9/ 11 1021.0 30 SE NEW RVR IN 1908 54 71 40/ 10/ 14 1021.0 30 SE NEW RVR IN 1900 71 N/A 4/12 2/12 27 SE WRIGHTSVLE 1908 55 68 40/ 10/ 17 1020.9 5 SE WRIGHTSVLE 1908 54 64 50/ 6/ 10 1021.1 225 S CAPE HAT 1850 69 77 30/ 16/ 19 1017.3 8/ 7 5/11 41 SE CHARLESTON 1900 63 75 40/ 14/ 17 1020.3 $$

USA.gov is the U.S. government's official web portal to all federal, state and local government web resources and services.